Temp
6 6 6 6 6 6 7 6 7 7 7 7 7 7 7 7 7 7 7 7 7 7 7 7 7 8 8 7 8 8 8 8 8 8 8 8 9 9 9 9 9 9 9
6 6 6 6 6 6 6 7 7 7 7 7 7 7 7 7 7 8 8 7 7 6 7 8 7 7 7 7 8 8 8 8 8 8 8 9 9 9 9 9 9 9 9
6 6 7 7 7 7 7 7 7 7 7 7 7 7 7 7 7 7 8 7 7 7 7 8 8 8 7 7 8 8 8 8 8 8 9 9 9 9 9 9 9 9 9
7 7 7 8 7 8 7 7 7 7 7 7 7 7 7 7 7 7 7 7 7 7 7 7 7 8 8 8 8 8 8 8 8 8 9 9 9 9 9 9 9 9 9
7 7 7 8 8 8 8 8 8 8 8 8 7 7 7 7 7 7 7 7 7 7 7 7 7 7 8 8 8 8 8 8 8 8 9 9 9 9 9 9 9 9 9
7 7 7 8 8 8 8 8 8 8 8 8 8 8 8 7 7 7 7 7 7 7 7 7 7 7 8 8 8 8 8 8 8 8 8 9 9 9 9 9 9 9 9
7 7 7 8 8 8 8 8 8 8 8 8 9 8 8 8 8 7 7 7 7 7 7 7 7 7 7 8 8 8 8 8 8 8 8 8 9 9 9 9 9 9 9
7 7 7 8 8 8 8 8 8 8 8 8 8 9 9 8 8 8 7 6 6 7 7 7 6 6 7 7 8 8 8 8 8 8 8 8 8 9 9 9 9 9 9
8 8 8 8 8 8 8 8 9 9 8 9 9 9 9 9 8 8 8 7 6 6 6 7 6 6 6 7 7 8 8 8 8 8 8 8 7 8 9 9 9 9 9
8 8 8 8 8 8 8 8 9 9 9 9 9 9 9 9 9 8 8 7 7 6 6 7 6 6 6 6 7 7 7 8 8 8 8 8 7 8 8 8 8 9 9
8 8 8 8 9 9 9 8 8 9 9 9 9 9 10 10 10 9 9 8 7 6 6 6 6 6 6 6 6 7 7 8 8 8 8 8 8 7 8 8 8 8 8
8 8 8 9 9 9 9 9 9 9 9 9 9 9 9 10 11 11 10 9 8 7 6 6 6 6 6 6 6 6 7 8 7 7 8 8 8 8 8 8 8 8 8
9 9 9 9 9 9 9 9 9 9 9 9 9 9 9 10 10 10 11 10 9 7 6 6 5 6 6 6 6 6 6 7 7 7 7 7 7 8 8 8 8 8 8
9 9 9 9 9 9 9 9 9 9 9 9 9 9 9 9 10 10 10 10 10 8 7 6 5 5 6 5 5 5 6 6 7 7 7 7 7 7 8 7 7 7 8
9 9 9 9 9 9 9 9 8 8 8 8 9 9 9 9 9 10 10 10 10 10 8 7 5 4 5 5 5 5 5 5 5 6 7 7 7 7 7 7 7 7 7
8 8 9 9 9 9 8 8 8 8 8 8 8 8 8 9 9 9 10 10 9 9 9 8 6 5 5 5 5 4 4 5 5 5 6 7 7 7 7 7 7 7 6
7 8 8 8 8 8 8 8 8 8 8 8 8 8 8 8 8 8 9 9 9 9 9 8 7 5 4 4 4 5 4 4 5 5 5 5 7 7 6 6 7 7 7
7 7 7 7 7 8 8 8 8 8 8 8 8 8 8 8 8 8 8 8 8 9 9 9 8 7 5 4 4 5 5 4 5 5 5 5 5 6 6 6 6 6 6
7 7 7 7 7 7 7 7 7 7 7 7 7 7 8 8 7 8 7 8 8 8 8 8 8 7 6 4 3 3 4 4 4 4 4 5 4 5 6 6 6 6 5
7 7 7 6 6 6 6 6 6 6 6 7 7 7 7 7 7 7 7 7 7 7 7 7 7 7 6 5 4 3 3 3 3 4 4 4 4 3 5 5 6 6 5
7 7 6 6 6 6 5 5 6 6 6 6 6 6 6 6 7 7 7 7 7 7 7 7 7 7 6 5 4 4 3 3 2 3 4 4 4 4 3 5 5 5 5
6 6 6 6 5 5 5 5 5 5 5 5 5 6 6 6 6 6 6 6 6 7 6 6 6 6 6 5 4 4 2 1 2 2 2 3 3 3 4 3 4 4 5
6 6 5 5 5 4 4 4 4 4 4 5 5 5 5 5 5 5 5 6 6 6 6 6 6 6 6 6 5 3 1 0 -0 0 1 2 2 1 2 2 1 2 3
6 6 5 5 4 4 4 4 4 4 4 4 4 4 4 5 5 5 5 5 5 5 5 5 5 5 5 5 5 4 3 -0 -1 -0 0 1 1 1 0 0 0 0 1
6 5 5 4 4 3 3 3 4 4 4 3 3 4 4 4 4 4 4 4 4 4 4 4 4 4 4 4 4 4 4 2 -0 -0 0 0 1 2 3 4 3 0 -0
6 6 5 4 3 3 3 3 3 3 3 3 3 3 3 3 3 3 3 3 3 3 3 3 3 3 3 3 3 3 3 3 1 1 0 0 1 2 4 2 -0 -1 -0
Height
3197 3197 3198 3198 3197 3197 3197 3196 3196 3195 3195 3195 3194 3194 3193 3192 3191 3189 3188 3188 3186 3185 3186 3186 3185 3185 3185 3183 3182 3181 3181 3181 3181 3180 3180 3180 3180 3180 3179 3178 3177 3176 3175
3197 3197 3198 3198 3198 3197 3197 3196 3196 3195 3195 3195 3195 3195 3193 3192 3192 3191 3190 3189 3188 3187 3187 3186 3186 3186 3185 3185 3185 3183 3183 3182 3182 3182 3182 3181 3181 3181 3181 3180 3179 3178 3177
3196 3197 3197 3198 3198 3197 3196 3195 3195 3195 3195 3194 3194 3194 3194 3193 3192 3192 3191 3190 3189 3188 3188 3188 3186 3186 3186 3185 3185 3185 3184 3184 3183 3182 3182 3182 3182 3182 3182 3182 3181 3180 3178
3196 3197 3196 3196 3196 3196 3195 3195 3194 3193 3193 3194 3193 3193 3193 3193 3192 3191 3191 3191 3190 3189 3188 3188 3188 3187 3186 3185 3185 3185 3185 3184 3183 3183 3182 3182 3183 3183 3183 3182 3182 3180 3179
3195 3195 3196 3195 3195 3195 3195 3194 3193 3193 3192 3192 3192 3192 3192 3192 3192 3191 3191 3191 3190 3190 3189 3188 3188 3187 3186 3186 3186 3185 3185 3185 3184 3183 3183 3182 3183 3183 3183 3183 3182 3181 3180
3195 3195 3195 3195 3195 3194 3194 3193 3193 3192 3191 3190 3190 3190 3189 3189 3189 3190 3190 3190 3190 3189 3190 3189 3188 3187 3187 3186 3186 3185 3185 3185 3185 3183 3182 3182 3182 3182 3182 3182 3183 3182 3182
3194 3194 3194 3194 3194 3194 3194 3193 3192 3192 3191 3189 3187 3187 3187 3186 3187 3188 3188 3188 3188 3189 3188 3189 3188 3187 3186 3186 3186 3185 3185 3185 3185 3184 3183 3182 3181 3181 3182 3182 3182 3182 3182
3195 3195 3194 3193 3193 3193 3193 3193 3192 3191 3189 3188 3186 3185 3184 3183 3183 3184 3184 3185 3186 3186 3187 3187 3187 3187 3187 3186 3185 3185 3184 3185 3184 3184 3183 3182 3182 3181 3181 3182 3183 3182 3183
3194 3194 3194 3193 3192 3192 3191 3191 3190 3190 3188 3187 3185 3183 3181 3180 3179 3180 3181 3182 3183 3184 3184 3185 3186 3186 3186 3186 3185 3185 3184 3184 3185 3184 3183 3183 3183 3182 3181 3181 3183 3184 3183
3192 3193 3193 3193 3193 3192 3192 3191 3190 3189 3188 3186 3184 3182 3180 3178 3177 3176 3176 3178 3179 3180 3181 3182 3184 3184 3185 3185 3185 3185 3185 3184 3184 3184 3183 3183 3183 3182 3183 3182 3182 3184 3185
3191 3192 3192 3192 3192 3192 3192 3191 3190 3189 3188 3187 3185 3183 3181 3178 3175 3173 3173 3174 3175 3176 3178 3179 3180 3181 3182 3184 3185 3184 3184 3184 3184 3184 3183 3182 3183 3183 3183 3184 3183 3184 3185
3189 3190 3190 3191 3191 3190 3191 3190 3189 3188 3187 3186 3184 3183 3180 3178 3175 3172 3170 3170 3171 3172 3174 3175 3177 3178 3179 3182 3183 3183 3183 3184 3184 3184 3183 3182 3182 3183 3182 3183 3183 3183 3185
3188 3189 3189 3189 3189 3189 3189 3189 3188 3187 3185 3184 3183 3182 3181 3179 3176 3174 3170 3167 3167 3168 3170 3171 3173 3175 3176 3178 3180 3182 3182 3182 3183 3183 3183 3183 3182 3182 3182 3182 3183 3183 3183
3187 3188 3188 3188 3188 3187 3186 3186 3186 3185 3185 3184 3183 3181 3180 3178 3176 3174 3171 3168 3165 3164 3165 3167 3169 3170 3172 3174 3176 3179 3181 3181 3181 3182 3182 3183 3182 3182 3181 3181 3181 3182 3183
3187 3187 3186 3186 3185 3185 3186 3185 3184 3184 3183 3182 3182 3181 3180 3179 3176 3174 3171 3168 3166 3163 3161 3162 3164 3166 3168 3170 3172 3175 3177 3179 3180 3180 3180 3181 3181 3181 3181 3181 3181 3180 3181
3186 3186 3185 3185 3184 3183 3183 3183 3182 3181 3181 3181 3181 3180 3179 3178 3176 3175 3172 3169 3165 3163 3160 3159 3159 3161 3164 3165 3167 3170 3172 3175 3176 3177 3178 3178 3179 3179 3179 3180 3180 3179 3178
3184 3184 3183 3183 3183 3182 3182 3181 3180 3180 3179 3178 3177 3177 3177 3176 3175 3173 3171 3169 3166 3162 3160 3157 3156 3156 3158 3160 3163 3163 3168 3170 3172 3174 3175 3175 3176 3177 3177 3176 3177 3177 3178
3180 3181 3181 3181 3181 3180 3180 3180 3179 3179 3177 3176 3176 3175 3174 3173 3173 3172 3170 3168 3166 3163 3160 3157 3155 3153 3152 3155 3158 3160 3162 3165 3166 3168 3169 3171 3172 3172 3173 3175 3174 3173 3174
3177 3177 3177 3178 3178 3178 3178 3178 3177 3176 3175 3174 3174 3173 3173 3172 3171 3170 3170 3168 3165 3162 3160 3157 3155 3153 3151 3150 3152 3154 3157 3159 3162 3162 3164 3166 3167 3168 3168 3169 3171 3171 3171
3174 3174 3174 3174 3175 3175 3175 3175 3175 3174 3174 3173 3173 3172 3171 3170 3169 3168 3167 3164 3162 3160 3158 3156 3154 3153 3150 3148 3147 3148 3150 3153 3155 3157 3160 3160 3161 3162 3164 3164 3165 3167 3168
3170 3171 3171 3171 3171 3171 3172 3172 3172 3172 3171 3170 3170 3170 3169 3168 3167 3166 3165 3163 3161 3159 3156 3154 3152 3151 3147 3146 3145 3143 3144 3147 3148 3150 3155 3156 3152 3157 3158 3160 3161 3162 3164
3167 3167 3167 3167 3168 3168 3169 3169 3169 3168 3168 3167 3167 3167 3166 3165 3164 3163 3163 3162 3160 3158 3157 3154 3151 3151 3147 3144 3140 3138 3140 3142 3143 3145 3148 3150 3152 3151 3152 3155 3155 3158 3159
3161 3161 3162 3163 3164 3164 3165 3165 3165 3165 3165 3165 3164 3164 3163 3162 3162 3161 3160 3159 3159 3158 3156 3153 3152 3149 3146 3144 3140 3139 3137 3137 3139 3139 3142 3143 3146 3149 3149 3149 3151 3154 3154
3156 3155 3157 3158 3159 3160 3161 3161 3161 3161 3161 3161 3161 3160 3160 3160 3159 3158 3158 3157 3157 3155 3154 3152 3149 3147 3145 3142 3140 3138 3135 3136 3137 3138 3139 3141 3142 3147 3149 3149 3147 3146 3149
3149 3150 3150 3152 3154 3155 3156 3157 3157 3157 3157 3156 3157 3157 3157 3157 3156 3156 3156 3155 3154 3153 3151 3150 3148 3146 3144 3142 3139 3137 3134 3131 3134 3136 3137 3138 3141 3142 3145 3145 3144 3144 3142
3143 3144 3145 3146 3148 3150 3151 3152 3153 3153 3153 3153 3152 3152 3153 3153 3153 3153 3152 3152 3150 3150 3148 3147 3146 3144 3143 3141 3140 3137 3134 3133 3134 3135 3135 3138 3139 3137 3138 3136 3136 3137 3135
Wind_Speed
8 5 4 2 2 3 2 3 4 4 5 5 5 6 7 7 8 8 9 9 12 12 10 8 6 5 5 6 6 7 7 7 7 9 10 10 10 9 9 8 9 9 8
6 5 3 2 3 4 4 5 6 7 6 7 6 6 6 6 5 6 6 5 8 10 7 7 5 4 4 3 3 4 3 4 4 6 7 7 7 6 7 8 8 6 7
7 6 6 6 6 8 10 9 9 9 9 9 9 8 6 6 5 4 3 2 4 6 5 5 4 3 2 2 2 3 2 3 4 5 6 5 5 5 6 6 6 6 6
7 7 8 8 7 7 9 10 11 12 12 11 11 11 9 8 7 6 3 2 1 2 3 2 3 3 3 3 3 2 3 4 4 5 5 5 4 4 4 4 5 5 6
4 4 5 5 5 5 5 7 7 9 10 11 13 13 12 12 11 10 8 4 4 3 3 1 0 2 1 2 1 3 4 5 5 4 4 4 3 3 3 4 4 4 4
3 3 5 5 4 5 5 6 6 6 8 10 11 12 14 15 14 14 13 10 8 7 6 4 4 3 2 2 3 4 5 6 6 4 3 3 2 2 1 2 3 3 3
2 3 4 4 4 4 5 5 6 7 8 10 11 11 13 15 17 17 17 15 13 11 10 8 8 5 4 2 4 3 4 4 6 6 5 3 2 1 1 0 1 3 5
2 2 3 4 4 4 5 5 7 8 10 10 11 11 12 13 17 19 20 19 18 16 14 11 10 8 5 4 4 4 3 4 4 6 6 4 3 1 2 2 2 5 6
2 2 2 3 4 6 6 6 6 8 10 11 12 12 11 10 12 17 20 22 22 20 18 16 13 12 8 6 5 6 4 3 3 4 6 5 3 2 4 5 4 4 7
3 3 3 3 3 5 5 6 6 7 9 11 12 12 13 12 9 12 18 22 25 24 23 21 18 15 14 9 8 6 7 5 4 2 3 5 3 2 2 6 7 5 7
4 4 5 4 4 4 5 6 6 7 8 9 10 12 13 14 13 9 11 19 25 28 26 25 23 20 19 14 11 9 8 8 5 4 2 2 4 1 1 3 4 6 6
6 6 5 5 5 5 5 6 8 9 10 10 11 12 13 15 13 13 11 10 20 28 30 28 26 25 23 19 16 13 11 10 8 7 5 2 1 2 1 2 4 7 6
7 7 7 7 6 7 7 7 8 9 11 12 12 13 14 15 14 12 12 11 9 21 30 31 30 28 27 25 21 17 15 12 12 10 8 6 3 3 3 3 5 6 7
8 9 9 8 8 8 8 9 9 9 10 10 13 14 15 14 15 14 12 11 10 9 20 30 33 32 29 29 27 21 18 17 14 13 12 10 8 6 6 6 6 7 7
9 10 10 10 10 10 10 10 11 11 10 10 11 12 12 13 14 14 13 12 10 10 9 20 31 32 28 29 28 24 22 20 18 15 15 14 12 10 9 8 9 10 9
10 11 11 10 10 11 12 12 13 14 13 12 11 11 12 11 11 11 12 12 12 11 9 9 20 31 35 31 30 29 26 24 23 18 16 16 16 14 13 12 12 12 12
11 11 11 10 11 11 12 13 15 15 14 14 14 13 12 12 11 11 11 10 10 10 10 9 10 21 32 36 29 25 36 28 25 27 21 18 18 19 17 15 15 15 15
11 12 12 11 11 11 12 13 14 15 15 15 15 15 14 13 11 11 10 10 10 9 8 8 9 9 20 31 38 37 32 32 29 28 28 27 23 22 22 21 19 18 18
11 12 13 13 12 12 12 13 14 15 16 16 16 15 15 13 12 11 9 9 9 10 11 10 10 10 9 18 31 40 34 34 34 35 30 33 27 27 25 25 24 22 20
13 14 15 14 14 13 13 13 14 15 15 15 15 15 14 13 12 11 10 10 10 11 11 13 13 12 10 10 17 31 41 38 33 34 39 42 37 31 28 27 27 26 24
16 16 17 16 16 15 14 14 14 15 15 15 15 14 14 13 11 11 9 8 8 10 12 15 17 18 15 11 11 17 29 36 30 29 35 38 33 39 32 32 28 29 28
20 19 19 19 18 16 16 15 15 15 15 15 15 15 14 13 11 10 8 7 6 7 9 12 15 18 18 15 13 12 18 25 30 28 28 29 33 34 38 35 28 29 30
22 22 22 20 19 18 17 16 16 15 14 14 14 14 13 12 11 9 8 7 5 5 7 10 14 17 20 20 15 10 14 17 21 20 20 24 26 26 29 34 28 29 28
25 25 22 22 21 19 18 16 16 15 14 14 13 13 13 12 11 9 8 6 5 4 6 9 13 16 18 20 21 15 10 16 11 11 18 20 24 27 25 29 24 22 29
27 25 25 24 22 20 18 16 15 15 14 14 14 13 12 11 10 9 8 6 5 5 6 8 10 13 15 17 19 20 14 6 15 8 3 8 7 9 21 35 24 30 31
26 26 25 25 23 21 18 16 15 15 15 15 14 13 12 11 10 9 8 7 6 5 6 7 9 11 13 14 15 16 16 9 14 19 19 22 24 22 28 37 33 26 23
Wind_Direction
168 180 184 191 254 288 293 294 310 321 326 325 325 338 355 18 35 55 59 71 79 79 75 78 83 92 91 90 92 93 82 76 55 48 40 31 25 31 31 44 45 42 41
196 195 203 244 280 294 295 293 288 289 291 299 307 316 323 341 9 32 46 65 87 89 82 83 86 97 95 59 51 68 67 68 50 30 23 21 22 23 16 22 31 32 37
220 242 257 269 279 285 286 282 284 285 287 289 291 294 297 305 320 340 10 52 95 107 97 76 82 95 112 80 47 3 32 10 6 6 358 6 12 16 19 21 17 23 39
218 242 262 273 279 282 284 281 278 280 281 279 282 283 287 290 288 286 284 286 203 151 118 43 72 64 43 52 38 356 348 348 356 354 354 357 8 12 28 16 7 18 42
206 253 275 285 295 298 294 290 289 288 287 283 276 275 274 269 271 270 268 257 273 247 207 177 6 24 65 20 30 37 26 8 358 1 341 337 348 9 24 14 4 8 63
251 273 287 295 304 307 310 311 309 310 306 299 290 282 271 260 257 257 256 252 241 244 255 223 227 315 334 328 338 21 28 11 353 357 14 349 328 305 336 354 5 30 83
237 274 292 307 318 322 321 323 329 332 328 319 313 299 279 265 253 248 251 248 247 242 245 251 256 275 290 285 300 338 5 10 357 349 360 10 345 312 294 341 86 101 112
230 256 285 305 322 328 329 331 335 335 336 336 329 319 300 272 257 246 241 246 246 243 244 245 249 259 268 280 284 296 319 343 1 352 345 357 5 44 98 84 113 125 122
266 280 304 313 324 327 331 333 337 341 346 345 345 343 335 309 267 251 241 238 244 244 243 241 242 249 254 262 271 279 281 302 324 360 346 341 16 46 113 120 122 129 130
269 292 304 304 312 319 323 326 334 345 352 351 355 355 354 346 319 266 246 237 237 241 242 243 242 245 248 242 258 267 275 273 290 323 358 341 359 37 108 130 136 145 144
257 279 288 292 299 299 305 314 324 334 346 353 357 360 358 353 342 326 269 241 234 236 240 241 243 243 248 245 247 258 265 270 268 284 307 357 331 340 120 148 145 151 152
269 273 274 268 282 284 296 308 319 327 337 346 354 357 358 359 357 346 327 279 240 233 235 238 240 244 246 249 252 260 261 264 265 265 270 259 311 296 200 192 165 156 161
258 262 268 268 274 281 286 293 302 315 324 336 342 347 350 355 0 4 351 331 279 239 233 234 237 239 244 249 248 253 262 260 264 260 262 263 237 231 215 189 179 178 173
258 263 265 259 255 267 283 290 298 304 309 319 328 336 341 348 356 1 9 0 337 277 240 234 235 238 238 246 250 245 251 261 256 261 257 259 250 234 217 208 191 199 205
259 265 267 274 284 281 281 288 295 298 301 307 313 317 324 334 346 353 359 7 5 344 285 245 236 236 241 239 251 253 251 252 259 253 257 255 256 247 235 222 217 208 214
257 260 265 273 279 285 290 292 292 294 298 300 300 304 311 322 334 343 353 1 3 2 345 289 251 241 237 241 245 248 258 249 253 255 252 255 253 251 243 237 233 230 224
261 265 262 266 274 281 284 288 290 291 291 296 301 303 305 312 323 336 347 357 3 3 1 343 304 251 239 233 241 238 247 253 249 257 251 250 255 253 250 241 238 237 240
266 272 270 266 267 272 277 280 283 285 287 289 290 294 299 306 314 324 334 348 1 11 13 5 350 302 250 239 238 242 244 247 243 244 243 259 250 248 251 250 245 243 239
270 271 269 266 266 268 273 277 280 282 283 284 285 288 291 296 304 314 324 336 350 5 14 20 16 356 303 258 240 239 244 247 243 250 253 258 246 249 243 246 247 247 246
268 271 268 266 267 270 275 278 278 277 276 277 278 279 282 289 296 305 317 330 342 353 5 20 23 11 356 303 260 245 241 248 256 253 253 254 251 240 245 242 243 246 247
270 270 266 262 264 270 275 277 277 276 275 275 276 278 281 283 288 296 304 320 333 345 356 9 17 17 5 340 291 272 247 249 255 249 246 252 248 258 245 245 244 245 247
269 272 262 256 257 264 269 271 271 272 272 272 273 275 276 279 285 290 297 309 324 338 351 4 13 18 16 360 336 298 276 260 255 253 254 250 261 247 244 241 244 249 248
272 271 260 253 253 261 267 270 270 268 265 264 263 265 270 275 279 283 293 304 314 331 352 5 8 12 18 17 9 319 273 265 268 273 264 257 265 249 249 252 256 255 253
270 266 258 252 253 259 264 265 266 266 263 262 262 261 261 264 270 276 283 292 303 332 355 4 7 9 10 14 14 353 317 246 248 281 270 257 252 263 303 275 270 265 265
261 260 253 250 252 258 258 259 262 265 263 260 256 256 254 255 257 264 274 282 295 322 346 358 3 3 5 6 4 4 357 314 222 252 186 210 236 267 289 301 308 287 274
258 256 252 247 250 255 254 258 265 268 265 260 256 254 255 253 254 260 270 283 296 312 331 348 355 356 356 357 356 356 3 346 237 239 250 279 287 287 291 289 281 275 287